OEBA

Details ICAO OEBA (ABT)
Name AL BAHA
Region Saudi Arabia
Timezone Asia/Riyadh (UTC+3.0)
Plans Departing 5
Arriving 7
Stats Elevation 5,486 ft / 1,672 m (AMSL)
Location 20.296126° 41.634283°
Runways 1
Magnetic Variation 3.139° E
Sunrise 2018-05-27 02:35:05 UTC / 2018-05-27 05:35:05 Local
Sunset 2018-05-27 15:49:00 UTC / 2018-05-27 18:49:00 Local
Advertisement - Login to hide

Runways

ID Width Length Bearing (true) Bearing (mag) Surface Threshold Offset Overrun Length
07 148 ft / 45 m 10,992 ft / 3,350 m 70.78° 67.64° Asphalt 787 ft / 240 m 1,312 ft / 400 m
25 148 ft / 45 m 10,992 ft / 3,350 m 250.79° 247.65° Asphalt 787 ft / 240 m 1,312 ft / 400 m

Approach Navaids

Runway Type Ident Frequency Range Bearing (true) Bearing (mag) Slope Elevation
25 Localiser IBHA 110.50 MHz 18 nm / 33 km 250.66° 247.52° - 5,486 ft / 1,672 m (AMSL)
25 Glidescope IBHA 110.50 MHz 10 nm / 19 km 250.78° 247.65° 3.00° 5,486 ft / 1,672 m (AMSL)
25 DME IBHA 110.50 MHz 18 nm / 33 km - - - 5,486 ft / 1,672 m (AMSL)

Map

Weather


0- 5 10 15 20 25 30 35+ Temperature / ° C

Clouds and Precipitation
Forecast for 2018-05-27 00:00 UTC. Updated 5 hours ago

Ground ~20,000 ft ~40,000 ft Winds

METAR

OEBA 270300Z 12004KT CAVOK 24/06 Q1018 NOSIG

TAF

Not found

Frequencies

Unicom 122.80 MHz CTAF
Warning: Do not use this data for real-world aviation or navigation. No guarantee of current accuracy is given.